AirNav   ProFlight Series 2 Aviation Headset
 
 461 users online  

MU08 Lee's Summit Heliport
Lee's Summit, Missouri, USA

GOING TO LEE'S SUMMIT?


FAA INFORMATION EFFECTIVE 16 JULY 2020

Location

FAA Identifier: MU08
Lat/Long: 38-55-21.0500N 094-24-20.7300W
38-55.350833N 094-24.345500W
38.9225139,-94.4057583
(estimated)
Elevation: 1000 ft. / 305 m (estimated)
Variation: 05E (1985)
Time zone: UTC -5 (UTC -6 during Standard Time)
Zip code: 64081

Heliport Operations

Heliport use: Private use, MEDICAL.
Activation date: 09/1980
Control tower: no
ARTCC: KANSAS CITY CENTER
FSS: COLUMBIA FLIGHT SERVICE STATION
Attendance: UNATNDD
Wind indicator: yes
Segmented circle: no

Heliport Communications

WX ASOS at LXT (2.7 nm NE): 124.175 (816-347-9807)
WX ASOS at MKC (15 nm NW): PHONE 816-329-2843
WX ASOS at OJC (16 nm W): 119.35 (913-780-6969)
WX AWOS-3PT at LRY (19 nm S): 119.975 (816-380-5936)

Nearby radio navigation aids

VOR radial/distance  VOR name  Freq  Var
ANXr224/16.6NAPOLEON VORTAC114.0007E
MCIr140/26.7KANSAS CITY VORTAC113.2505E
BUMr359/39.2BUTLER VORTAC115.9007E

Heliport Services

Runway Information

Helipad H1

Dimensions: 35 x 35 ft. / 11 x 11 m
Surface: asphalt
Latitude: 38-55.350833N
Longitude: 094-24.345500W
Elevation: 1000.0 ft.
Traffic pattern: leftleft
Obstructions: 100 ft. ant, 300 ft. from runway
100' ANTENNA 300' NE; 30' BLDG 80' NE; 16' TANK 80' NW.

Heliport Ownership and Management from official FAA records

Ownership: Privately-owned
Owner: LEE'S SUMMIT HOSPITAL
530 NORTH MURRAY ROAD
LEE'S SUMMIT, MO 64063
Phone 816-525-2950
Manager: TIM MCGINNIS
2100 BLUE PARKWAY
LEE'S SUMMIT, MO 64063
Phone (816) 282-5086

Additional Remarks

OWNER DOES NOT WANT ARPT CHARTED.
FOR CD CTC KANSAS CITY APCH AT 816-329-2710.

Instrument Procedures

There are no published instrument procedures at MU08.

Some nearby airports with instrument procedures:

KLXT - Lee's Summit Municipal Airport (3 nm NE)
3GV - East Kansas City Airport (10 nm NE)
KMKC - Charles B Wheeler Downtown Airport (15 nm NW)
KOJC - Johnson County Executive Airport (16 nm W)
KLRY - Lawrence Smith Memorial Airport (19 nm S)
 
Loc | Ops | Rwys | IFR | FBO | Links
Com | Nav | Svcs | Stats | Notes
Area around MU08 (Lee's Summit Heliport)
 
Road maps at: MapQuest Bing Google
 
Aerial photo
No photo
 
Sectional chart

 
Airport distance calculator
Flying to Lee's Summit Heliport? Find the distance to fly.

From to MU08

Sunrise and sunset
Times for 10-Aug-2020
 Local
(UTC-5)
 Zulu
(UTC)
Morning civil twilight06:0011:00
Sunrise06:2811:28
Sunset20:1701:17
Evening civil twilight20:4601:46

Current date and time
Zulu (UTC)  10-Aug-2020 10:30:26
Local (UTC-5)  10-Aug-2020 05:30:26
 
METAR
KLXT 
3nm NE 
100953Z AUTO 19009KT 10SM CLR 26/21 A2994 RMK AO2 SLP129 T02560211 $
KMKC 
15nm NW 
100954Z 21006KT 10SM CLR 24/20 A2992 RMK AO2 SLP123 T02440200
KOJC 
16nm W 
100953Z AUTO 19005KT 10SM CLR 23/21 A2994 RMK AO2 SLP127 T02280211 PNO $
KLRY 
19nm S 
101015Z AUTO 00000KT 10SM CLR 24/22 A2998 RMK AO2
TAF
KMKC 
15nm NW 
100520Z 1006/1106 19006KT P6SM FEW250 WS020/22040KT FM101300 24010KT P6SM SCT250 FM102100 24007KT P6SM VCTS SCT040CB BKN250 FM102300 02005KT P6SM VCTS SCT040CB BKN250 FM110300 11005KT P6SM BKN250
NOTAMs
Click for the latest NOTAMs
NOTAMs are issued by the DoD/FAA and will open in a separate window not controlled by AirNav.

 

 
 

Would you like to see your business listed on this page?

 If your business provides an interesting product or service to pilots, flight crews, aircraft, or users of the Lee's Summit Heliport, you should consider listing it here.  To start the listing process, click on the button below
 
Add a business
 

Other Pages about Lee's Summit Heliport

Update a link
 
Copyright © AirNav, LLC. All rights reserved. Privacy Policy  Contact